This is the latest recevied weather packets stored in our database for station/object W5ZYX. If no packets are shown the sender has not sent any weather packets the latest 1 day(s).
| Time | Temp. | Humidity | Pressure | Rain* | Wind** | Luminosity | Snow |
|---|---|---|---|---|---|---|---|
| 1777997747 | 25° C | 84% | 1009.3 hPa | 0 mm | 2.24 m/s, 174° | - | - |
| 1777997438 | 24.44° C | 85% | 1009.4 hPa | 0 mm | 1.79 m/s, 189° | - | - |
| 1777997137 | 24.44° C | 85% | 1009.4 hPa | 0 mm | 1.79 m/s, 153° | - | - |
| 1777996851 | 24.44° C | 85% | 1009.4 hPa | 0 mm | 1.79 m/s, 183° | - | - |
| 1777996539 | 24.44° C | 86% | 1009.4 hPa | 0 mm | 1.79 m/s, 190° | - | - |
| 1777996239 | 24.44° C | 85% | 1009.4 hPa | 0 mm | 1.79 m/s, 165° | - | - |
| 1777995952 | 24.44° C | 86% | 1009.4 hPa | 0 mm | 1.34 m/s, 248° | - | - |
| 1777995637 | 23.89° C | 86% | 1009.4 hPa | 0 mm | 0.89 m/s, 161° | - | - |
| 1777995337 | 23.89° C | 86% | 1009.5 hPa | 0 mm | 1.34 m/s, 219° | - | - |
| 1777995052 | 23.89° C | 86% | 1009.4 hPa | 0 mm | 2.24 m/s, 209° | - | - |
| 1777994737 | 23.89° C | 86% | 1009.4 hPa | 0 mm | 2.24 m/s, 163° | - | - |
| 1777994441 | 23.89° C | 86% | 1009.3 hPa | 0 mm | 1.79 m/s, 222° | - | - |
| 1777994149 | 23.33° C | 86% | 1009.3 hPa | 0 mm | 1.79 m/s, 175° | - | - |
| 1777993836 | 23.33° C | 87% | 1009.3 hPa | 0 mm | 1.34 m/s, 175° | - | - |
| 1777993536 | 23.33° C | 87% | 1009.3 hPa | 0 mm | 2.24 m/s, 161° | - | - |
| 1777993248 | 23.33° C | 87% | 1009.4 hPa | 0 mm | 1.34 m/s, 161° | - | - |
| 1777992936 | 23.33° C | 87% | 1009.4 hPa | 0 mm | 1.79 m/s, 185° | - | - |
| 1777992636 | 23.33° C | 87% | 1009.3 hPa | 0 mm | 1.34 m/s, 184° | - | - |
| 1777992348 | 23.33° C | 87% | 1009.3 hPa | 0 mm | 1.34 m/s, 187° | - | - |
| 1777992037 | 23.33° C | 88% | 1009.4 hPa | 0 mm | 1.34 m/s, 172° | - | - |
| 1777991737 | 22.78° C | 88% | 1009.4 hPa | 0 mm | 0.89 m/s, 190° | - | - |
| 1777991481 | 22.78° C | 88% | 1009.3 hPa | 0 mm | 2.24 m/s, 207° | - | - |
| 1777991137 | 22.78° C | 88% | 1009.3 hPa | 0 mm | 1.79 m/s, 182° | - | - |
| 1777990837 | 22.78° C | 88% | 1009.4 hPa | 0 mm | 2.24 m/s, 164° | - | - |
| 1777990548 | 22.78° C | 88% | 1009.4 hPa | 0 mm | 1.34 m/s, 177° | - | - |
* Rain latest hour (hover to see other rain measurements)
** Current wind speed in m/s (hover to see current wind gust speed)